Flag for Germany Weather past 2 weeks in Ganderkesee, Lower Saxony, Germany

Now
63 °F

Scattered clouds.


Feels Like: 63 °F
Forecast: 47 / 64 °F
Wind: 8 mph from Southwest

Location: Bremen Airport

Current Time: Sep 2, 2015 at 7:13:16 PM

Latest Report: Sep 2, 2015 at 6:50 PM


Visibility: N/A

Pressure: 29.95 "Hg

Humidity: 64%

Dew point: 50 °F

Location of GanderkeseeLocation

Historic Weather in Ganderkesee — Graph

°F

Ganderkesee temperature yesterday

Maximum temperature yesterday: 70 °F (at 12:20 AM)
Minimum temperature yesterday: 54 °F (at 9:50 PM)
Average temperature yesterday: 63 °F

Past Weeks' High & Low Weather Summary

 TemperatureHumidityPressure
High84 °F (Aug 31, 5:20 PM)100% (Aug 19, 12:50 AM)30.27 "Hg (Aug 19, 12:50 AM)
Low50 °F (Aug 29, 3:20 AM)30% (Aug 22, 1:50 PM)29.56 "Hg (Aug 24, 5:50 PM)
Average65 °F76%29.97 "Hg
* Reported Aug 18 5:20 PM — Sep 2 5:20 PM, Ganderkesee, Weather by CustomWeather, © 2015

Note: Actual official high and low records may vary slightly from our data, if they occured in-between our weather recording intervals... More about our weather records

Advertising

Ganderkesee weather history for previous 24 hours

 ConditionsComfort  
Time TempWeatherWind HumidityBarometerVisibility
5:20 PM
Wed, Sep 2
63 °FBroken clouds.10 mph64%29.95 "HgN/A
4:50 PM63 °FBroken clouds.8 mph64%29.95 "HgN/A
4:20 PM63 °FBroken clouds.9 mph64%29.95 "HgN/A
3:50 PM63 °FBroken clouds.15 mph59%29.95 "HgN/A
3:20 PM64 °FScattered clouds.15 mph56%29.95 "HgN/A
2:50 PM63 °FScattered clouds.15 mph64%29.95 "HgN/A
2:20 PM64 °FScattered clouds.17 mph64%29.95 "HgN/A
1:50 PM64 °FScattered clouds.16 mph60%29.95 "HgN/A
1:20 PM63 °FScattered clouds.16 mph64%29.98 "HgN/A
12:50 PM64 °FScattered clouds.16 mph60%29.98 "HgN/A
12:20 PM63 °FScattered clouds.15 mph64%29.98 "HgN/A
11:50 AM63 °FScattered clouds.15 mph68%29.98 "HgN/A
11:20 AM63 °FPassing clouds.16 mph68%29.98 "HgN/A
10:50 AM61 °FPassing clouds.16 mph72%29.98 "HgN/A
10:20 AM61 °FPassing clouds.16 mph77%29.98 "HgN/A
9:50 AM59 °FPassing clouds.14 mph77%29.98 "HgN/A
9:20 AM57 °FPassing clouds.12 mph82%29.98 "HgN/A
8:50 AM55 °FPassing clouds.13 mph88%29.98 "HgN/A
8:20 AM55 °FPassing clouds.10 mph82%29.98 "HgN/A
7:50 AM54 °FPassing clouds.8 mph88%29.95 "HgN/A
7:20 AM52 °FPassing clouds.8 mph94%29.95 "HgN/A
6:50 AM52 °FClear.9 mph94%29.95 "Hg10 mi
6:20 AM52 °FPassing clouds.9 mph94%29.95 "HgN/A
5:50 AM52 °FPassing clouds.10 mph94%29.95 "HgN/A
5:20 AM52 °FClear.9 mph94%29.95 "Hg10 mi
4:50 AM52 °FClear.9 mph94%29.95 "Hg10 mi
4:20 AM52 °FClear.10 mph94%29.95 "Hg10 mi
3:50 AM52 °FClear.8 mph94%29.95 "Hg10 mi
3:20 AM52 °FClear.8 mph94%29.95 "Hg10 mi
2:50 AM52 °FClear.9 mph94%29.95 "Hg10 mi
2:20 AM54 °FClear.10 mph88%29.95 "Hg10 mi
1:50 AM54 °FClear.10 mph88%29.95 "Hg10 mi
1:20 AM54 °FClear.9 mph88%29.95 "Hg10 mi
12:50 AM54 °FClear.10 mph94%29.95 "Hg10 mi
11:20 PM
Tue, Sep 1
55 °FClear.10 mph88%29.95 "Hg10 mi
10:50 PM55 °FClear.9 mph88%29.95 "Hg10 mi
10:20 PM55 °FClear.9 mph88%29.92 "Hg10 mi
9:50 PM54 °FPassing clouds.8 mph94%29.92 "HgN/A
9:20 PM57 °FPassing clouds.9 mph82%29.92 "HgN/A
8:50 PM55 °FPassing clouds.8 mph88%29.92 "HgN/A
8:20 PM57 °FPartly sunny.7 mph88%29.92 "HgN/A
7:50 PM61 °FBroken clouds.9 mph83%29.89 "HgN/A
7:20 PM61 °FBroken clouds.9 mph83%29.89 "HgN/A
Weather by CustomWeather, © 2015

See weather overviewHow to use our weather pages